Regional Weather Roundup
Issued by NWS

Home | Current Version | Previous Version | Text Only | Print | Product List | Glossary On
Versions: 1 2 3 4 5 6 7 8 9 10 11 12 13 14 15 16 17 18 19 20 21 22 23 24 25 26 27 28 29 30 31 32 33 34 35 36 37 38 39 40 41 42 43 44 45 46 47 48 49 50
000
ASMX46 KSGX 190703
RWRMX

MEXICAN WEATHER ROUNDUP
NATIONAL WEATHER SERVICE SAN DIEGO CA
1200 AM PDT FRI SEP 19 2014

BAJA CALIFORNIA

CITY           SKY/WX    TMP DP  RH WIND       PRES   REMARKS
LA PAZ         CLEAR     79  68  69 S7        29.85S
TIJUANA        CLOUDY    70  63  78 W10       29.90

NORTHWESTERN MEXICO

CITY           SKY/WX    TMP DP  RH WIND       PRES   REMARKS

NORTHEASTERN MEXICO

CITY           SKY/WX    TMP DP  RH WIND       PRES   REMARKS
MONTERREY      CLOUDY    77  73  88 E12       29.85F
REYNOSA        CLEAR     77  73  88 SE5       29.84F
VICTORIA       PTCLDY    79  72  78 S14       29.85F

WESTERN MEXICO

CITY           SKY/WX    TMP DP  RH WIND       PRES   REMARKS
GUADALAJARA    PTCLDY    64  57  77 SE5       30.12F
MAZATLAN       MOCLDY    75  73  94 E8        29.78R
PTO. VALLARTA  MOCLDY    77  73  88 N5        29.82S
ZACATECAS      CLEAR     59  52  77 S8        30.22

CENTRAL MEXICO

CITY           SKY/WX    TMP DP  RH WIND       PRES   REMARKS
MEXICO CITY    CLEAR     63  52  67 S1        30.29F
MORELIA        PTCLDY    59  57  94 SW7       30.20F
QUERETARO      MOCLDY    59  54  82 E5        30.25F
S. LUIS POTOSI MOCLDY    64  57  77 CALM      30.16
TOLUCA         CLEAR     50  45  81 CALM      30.38F

SOUTHERN MEXICO

CITY           SKY/WX    TMP DP  RH WIND       PRES   REMARKS
ACAPULCO       PTCLDY    81  77  89 N3        29.87S
TAPACHULA      MOCLDY    77  72  83 CALM      29.91F

YUCATAN PENINSULA

CITY           SKY/WX    TMP DP  RH WIND       PRES   REMARKS
CANCUN         PTCLDY    81  75  83 SE8       29.91F
MERIDA         CLEAR     77  77 100 E10       29.88F

$$



USA.gov is the U.S. government's official web portal to all federal, state and local government web resources and services.